logo
Search for airport 
image banner adimage banner adimage banner ad
image banner ad

LOKK - Hallegg Klagenfurt Schloss

Located in District Klagenfurt Stadt, Austria

ICAO - , IATA -

Data provided by Airmate  

General information

Coordinates: N46°38'52" E14°14'42"
Elevation is 1493 feet MSL.
 
View others Airports in Carinthia

Operational data

Special qualification required
Current time UTC:
Current local time:
Weather at : LOWK - Klagenfurt ( 7 km )
METAR: LOWK 151120Z AUTO 24005KT 180V310 9999 FEW050 24/12 Q1011 NOSIG
TAF: TAF COR LOWK 151112Z 1512/1612 VRB03KT 9999 FEW040 TX24/1513Z TN14/1603Z TEMPO 1512/1518 22012KT PROB30 TEMPO 1513/1518 FEW040CB SCT050 TEMPO 1600/1605 -SHRA
View NOTAMs / SUP AIP / TFR affecting this airport [VIEW]
Communications frequencies: [VIEW]

Runways:

Airport contact information

Address: District Klagenfurt Stadt Austria

Satellite view of LOKK